Terminal Aerodrome Forecast
Issued by NWS Cleveland, OH

Home | Current Version | Previous Version | Text Only | Print | Product List | Glossary Off
Versions: 1 2 3 4 5 6 7 8 9 10 11 12 13 14 15 16 17 18 19 20 21 22 23 24 25

000
FTUS41 KCLE 200200 AAA
TAFCLE
TAF AMD
KCLE 200254Z 2003/2106 34005KT P6SM OVC025
     FM200600 VRB03KT P6SM BKN015 OVC020
     FM201600 VRB03KT P6SM SCT015 OVC025=

USA.gov is the U.S. government's official web portal to all federal, state and local government web resources and services.